Weather History for Huntsville, AL

Change the Weather History Date:

Monday, February 4, 2013

  Actual Average Record
Temperature  
Mean Temperature 41 °F 43 °F  
Max Temperature 52 °F 53 °F 79 °F (1927)
Min Temperature 30 °F 33 °F 1 °F (1996)
Degree Days  
Heating Degree Days 24 22  
Month to date heating degree days 108 88  
Since 1 July heating degree days 1814 1998  
Cooling Degree Days 0 0  
Month to date cooling degree days 0 0  
Year to date cooling degree days 6 0  
Moisture  
Dew Point 32 °F    
Average Humidity 67    
Maximum Humidity 92    
Minimum Humidity 41    
Precipitation  
Precipitation T in 0.17 in 1.54 in (1899)
Month to date precipitation 0.10 0.68  
Year to date precipitation 8.69 5.57  
Snow  
Snow 0.00 in - - ()
Month to date snowfall T  
Since 1 July snowfall 0.7  
Snow Depth 0.00 in    
Sea Level Pressure  
Sea Level Pressure 30.05 in    
Wind  
Wind Speed 4 mph (SSE)    
Max Wind Speed 10 mph    
Max Gust Speed 13 mph    
Visibility 10 miles    
Events Rain    
T = Trace of Precipitation, MM = Missing Value Source: NWS Daily Summary

Daily Weather History Graph

Daily Weather History Graph

Search for Another Location

Airport:

Trip Planner

Search our weather history database for the weather conditions in past years. The results will help you decide how hot, cold, wet, or windy it might be!

Date:

Astronomy

Feb. 04, 2013 Rise Set
Actual Time 6:42 AM CST 5:19 PM CST
Civil Twilight 6:16 AM CST 5:46 PM CST
Nautical Twilight 5:46 AM CST 6:16 PM CST
Astronomical Twilight 5:16 AM CST 6:45 PM CST
Moon 1:14 AM CST (2/4) 11:46 AM CST (2/4)
Length of Visible Light 11h 29m
Length of Day
10h 37m
Last Quarter, 37% of the Moon is Illuminated
Feb 4
Last Quarter
Feb 10
New
Feb 17
First Quarter
Feb 25
Full
Mar 4
Last Quarter

Hourly Weather History & Observations

Time (CST) Temp. Windchill Dew Point Humidity Pressure Visibility Wind Dir Wind Speed Gust Speed Precip Events Conditions
12:53 AM 36.0 °F - 28.0 °F 73% 30.11 in 10.0 mi Calm Calm - N/A   Clear
1:53 AM 30.9 °F - 27.0 °F 85% 30.10 in 10.0 mi Calm Calm - N/A   Clear
2:53 AM 30.9 °F 26.2 °F 28.0 °F 89% 30.09 in 10.0 mi ENE 4.6 mph - N/A   Clear
4:53 AM 32.0 °F - 28.9 °F 88% 30.11 in 10.0 mi Calm Calm - N/A   Clear
5:53 AM 32.0 °F - 30.0 °F 92% 30.12 in 10.0 mi Calm Calm - N/A   Overcast
6:53 AM 33.1 °F - 30.9 °F 92% 30.12 in 10.0 mi Calm Calm - N/A   Mostly Cloudy
7:53 AM 34.0 °F - 30.9 °F 89% 30.13 in 10.0 mi Calm Calm - N/A   Mostly Cloudy
8:53 AM 37.0 °F 34.5 °F 33.1 °F 86% 30.13 in 10.0 mi SSE 3.5 mph - N/A   Overcast
9:53 AM 39.9 °F 37.8 °F 33.1 °F 77% 30.12 in 10.0 mi SE 3.5 mph - N/A   Overcast
10:53 AM 43.0 °F 39.5 °F 33.1 °F 68% 30.10 in 10.0 mi SSE 5.8 mph - N/A   Overcast
11:53 AM 45.0 °F 41.2 °F 33.1 °F 63% 30.08 in 10.0 mi SSE 6.9 mph - N/A   Overcast
12:53 PM 48.0 °F - 32.0 °F 54% 30.04 in 10.0 mi South 6.9 mph - N/A   Overcast
1:53 PM 50.0 °F - 33.1 °F 52% 30.02 in 10.0 mi South 5.8 mph - N/A   Overcast
2:53 PM 52.0 °F - 28.9 °F 41% 29.99 in 10.0 mi SE 10.4 mph - N/A   Overcast
3:53 PM 51.1 °F - 30.0 °F 44% 30.00 in 10.0 mi South 5.8 mph - N/A   Mostly Cloudy
4:53 PM 48.9 °F - 30.9 °F 50% 30.01 in 10.0 mi SSW 4.6 mph - N/A   Mostly Cloudy
5:53 PM 46.0 °F 43.1 °F 35.1 °F 66% 30.01 in 10.0 mi South 5.8 mph - N/A   Overcast
6:53 PM 46.0 °F 42.5 °F 34.0 °F 63% 30.00 in 10.0 mi SSE 6.9 mph - N/A   Overcast
7:53 PM 46.0 °F 42.5 °F 34.0 °F 63% 29.99 in 10.0 mi SSE 6.9 mph - N/A   Overcast
8:53 PM 46.0 °F 43.9 °F 34.0 °F 63% 29.99 in 10.0 mi SE 4.6 mph - N/A   Overcast
9:53 PM 46.9 °F - 35.1 °F 63% 29.98 in 10.0 mi Calm Calm - 0.00 in Rain Light Rain
10:53 PM 46.9 °F - 36.0 °F 66% 29.97 in 10.0 mi South 4.6 mph - 0.00 in   Overcast
11:53 PM 46.9 °F - 37.0 °F 68% 29.96 in 10.0 mi South 4.6 mph - 0.00 in   Overcast